Lakehurst, NJ

5:30 PM EST on February 07, 2016 (GMT -0500)
Lakehurst Naes

Weather History for KNEL - June, 2013

Change the Weather History Date:

Sunday, June 30, 2013

  Actual Average Record
Temperature  
Mean Temperature 84 °F -  
Max Temperature 80 °F 82 °F 93 °F (2012)
Min Temperature 73 °F 67 °F 55 °F (2011)
Cooling Degree Days 19    
Growing Degree Days 34 (Base 50)    
Moisture  
Dew Point 72 °F    
Average Humidity 67    
Maximum Humidity 84    
Minimum Humidity 49    
Precipitation  
Precipitation 0.00 in - - ()
Sea Level Pressure  
Sea Level Pressure 29.82 in    
Wind  
Wind Speed 5 mph (South)    
Max Wind Speed 13 mph    
Max Gust Speed 21 mph    
Averages and records for this station are not official NWS values.
T = Trace of Precipitation, MM = Missing Value Source: NWS Daily Summary

Daily Weather History Graph

Daily Weather History Graph

Search for Another Location

Airport or City:

Trip Planner

Search our weather history database for the weather conditions in past years. The results will help you decide how hot, cold, wet, or windy it might be!

Date:

Astronomy

Jun. 30, 2013 Rise Set
Actual Time 5:31 AM EDT 8:30 PM EDT
Civil Twilight 4:59 AM EDT 9:03 PM EDT
Nautical Twilight 4:17 AM EDT 9:44 PM EDT
Astronomical Twilight 3:29 AM EDT 10:32 PM EDT
Moon 12:29 AM EDT (6/30) 1:42 PM EDT (6/30)
Length of Visible Light 16h 03m
Length of Day
14h 58m
Last Quarter, 45% of the Moon is Illuminated
Jun 30
Last Quarter
Jul 8
New
Jul 15
First Quarter
Jul 22
Full
Jul 29
Last Quarter

Hourly Weather History & Observations

Time (EDT) Temp. Heat Index Dew Point Humidity Pressure Visibility Wind Dir Wind Speed Gust Speed Precip Events Conditions
12:00 AM 79.0 °F - 69.1 °F 72% 29.71 in - SSE 4.6 mph - N/A   Clear
1:00 AM 75.9 °F - 69.1 °F 79% 29.72 in - WSW 4.6 mph - N/A   Clear
2:00 AM 77.0 °F - 70.0 °F 79% 29.73 in - SSE 3.5 mph - N/A   Clear
3:00 AM 77.0 °F - 69.1 °F 76% 29.73 in - North - - N/A   Clear
4:00 AM 73.0 °F - 68.0 °F 84% 29.73 in - Calm Calm - N/A   Clear
5:00 AM 78.1 °F - 68.0 °F 71% 29.74 in - Calm Calm - N/A   Clear
6:00 AM 78.8 °F - 69.8 °F 74% 29.77 in - Calm Calm - N/A   Mostly Cloudy
6:06 AM 77.0 °F - 69.1 °F 76% 29.76 in - Calm Calm - N/A   Mostly Cloudy
6:14 AM 75.2 °F - 69.8 °F 83% 29.77 in - Calm Calm - N/A   Overcast
7:00 AM 77.0 °F - 71.1 °F 82% 29.79 in - Calm Calm - N/A   Overcast
8:00 AM 86.0 °F 93.0 °F 73.0 °F 65% 29.81 in - SSW 4.6 mph - N/A   Overcast
8:18 AM 84.2 °F 90.9 °F 73.4 °F 70% 29.82 in - SSW 3.5 mph - N/A   Overcast
9:00 AM 88.0 °F 95.6 °F 73.0 °F 61% 29.81 in - SW 5.8 mph - N/A   Overcast
10:00 AM 91.0 °F 99.3 °F 73.0 °F 55% 29.81 in - Calm Calm - N/A   Overcast
10:18 AM 89.6 °F 98.2 °F 73.4 °F 59% 29.81 in - Calm Calm - N/A   Mostly Cloudy
11:00 AM 91.4 °F 100.1 °F 73.4 °F 55% 29.81 in - SSW 3.5 mph - N/A   Scattered Clouds
11:06 AM 93.9 °F 104.0 °F 73.9 °F 52% 29.81 in - South 4.6 mph - N/A   Scattered Clouds
11:28 AM 93.2 °F 102.4 °F 73.4 °F 52% 29.82 in - South 6.9 mph - N/A   Mostly Cloudy
11:48 AM 93.2 °F 102.4 °F 73.4 °F 52% 29.82 in - SSE 9.2 mph - N/A   Scattered Clouds
12:00 PM 93.0 °F 103.2 °F 73.9 °F 54% 29.81 in - SSE 5.8 mph - N/A   Scattered Clouds
1:00 PM 95.0 °F 104.5 °F 73.0 °F 49% 29.81 in - SSE 6.9 mph - N/A   Partly Cloudy
2:00 PM 91.9 °F 101.3 °F 73.9 °F 55% 29.82 in - SSE 9.2 mph - N/A   Partly Cloudy
3:00 PM 90.0 °F 97.9 °F 73.0 °F 57% 29.83 in - South 9.2 mph - N/A   Mostly Cloudy
3:52 PM 84.2 °F 90.9 °F 73.4 °F 70% 29.85 in - SSW 8.1 mph - N/A Rain , Thunderstorm Thunderstorms and Rain
4:00 PM 84.0 °F 91.2 °F 73.9 °F 72% 29.84 in - South 8.1 mph - N/A Rain , Thunderstorm Thunderstorms and Rain
4:07 PM 84.2 °F 90.9 °F 73.4 °F 70% 29.85 in - South 10.4 mph - N/A Rain Light Rain
4:25 PM 84.2 °F 90.9 °F 73.4 °F 70% 29.85 in - SW 9.2 mph - N/A Rain Light Rain
4:30 PM 82.4 °F 88.2 °F 73.4 °F 74% 29.84 in - SW 6.9 mph - N/A Rain Light Rain
4:32 PM 82.4 °F 88.2 °F 73.4 °F 74% 29.84 in - SSW 9.2 mph - N/A Rain Light Rain
4:50 PM 84.2 °F 90.9 °F 73.4 °F 70% 29.83 in - South 6.9 mph - N/A Rain Light Rain
5:00 PM 84.0 °F 90.2 °F 73.0 °F 69% 29.83 in - South 6.9 mph - N/A Rain Light Rain
5:48 PM 84.2 °F 90.9 °F 73.4 °F 70% 29.82 in - South 8.1 mph - N/A   Partly Cloudy
6:00 PM 86.0 °F 93.8 °F 73.9 °F 67% 29.82 in - South 9.2 mph - N/A   Scattered Clouds
7:00 PM 88.0 °F 95.6 °F 73.0 °F 61% 29.84 in - South 6.9 mph - N/A   Clear
8:00 PM 84.9 °F 90.7 °F 72.0 °F 65% 29.85 in - SSE 8.1 mph - N/A   Scattered Clouds
8:18 PM 84.2 °F 89.6 °F 71.6 °F 66% 29.87 in - South 6.9 mph - N/A   Mostly Cloudy
9:00 PM 82.9 °F 88.0 °F 72.0 °F 69% 29.88 in - South 6.9 mph - N/A   Overcast
9:10 PM 84.2 °F 89.6 °F 71.6 °F 66% 29.89 in - South 6.9 mph - N/A   Overcast
10:00 PM 82.9 °F 88.0 °F 72.0 °F 69% 29.89 in - South 9.2 mph - N/A   Overcast
10:35 PM 82.4 °F 87.2 °F 71.6 °F 70% 29.90 in - South 12.7 mph 20.7 mph N/A   Overcast
11:06 PM 82.9 °F 87.5 °F 71.1 °F 67% 29.90 in - South 9.2 mph - N/A   Mostly Cloudy